Flight Information

DEPARTURE
SAN BERNARDINO, CA
Elevation:
1159
Runways:
6/24 - 10000x200 - CONC-E
ATIS:
124.175
Ground:
121.8
Tower:
119.45
DESTINATION
,
Elevation:
TPA:
1000 (est.)


6736 NM74° True-14° Var60° HDG

Flight Plan:
(click to file on line)

1. Type
2. Aircraft Identification
3. Aircraft Type / Special Equipment
4. True Airspeed
kts
5. Departure Airport
(ICAO code)
6. Arriving Airport
(ICAO code)
7. Cruising Altitude
ft
8. Alternate Airport
(ICAO code)
9. Route of Flight
10. Remarks


00:00:00 Departure ATIS: Destination ATIS:

Clearance Limit:
Route:
Altitude: Expect in minutes
Frequency:
Transponder: (7500 Hijack / 7600 Lost Comms / 7700 Emergency)


KSBD 082053Z 23006KT 10SM CLR 16/M01 A3023
Time: 2022-12-08T20:53:00Z
1670647677
Winds: 230 @ 6 kts
Visibility: 10.0 sm
Clouds (AGL): CLR
Temperature: 16.0 C
Dew Point: -1.0 C
Pressure: 30.230314 in Hgbr


Notes:

Data extracted from FAA Digital Chart Supplement. Effective: 0901Z Thursday, 27 JAN 2022 to 0900z Thursday, 24 MAR 2022
Current ATIS data is provided courtisy of PilotEdge.